Weather History for Metropolis, IL

Change the Weather History Date:

Saturday, September 8, 2012

  Actual Average (KPAH) Record (KPAH)
Temperature  
Mean Temperature 64 °F 73 °F  
Max Temperature 75 °F 85 °F 103 °F (1939)
Min Temperature 55 °F 61 °F 47 °F (1953)
Degree Days  
Heating Degree Days 0 0  
Month to date heating degree days 0  
Since 1 July heating degree days 1  
Cooling Degree Days 0 8  
Month to date cooling degree days 74  
Year to date cooling degree days 1387  
Growing Degree Days 14 (Base 50)    
Moisture  
Dew Point 57 °F    
Average Humidity 71    
Maximum Humidity 100    
Minimum Humidity 40    
Precipitation  
Precipitation 0.03 in 0.12 in 0.72 in (1976)
Month to date precipitation 0.86  
Year to date precipitation 33.34  
Snow  
Snow 0.00 in 0.00 in 0.00 in (2002)
Month to date snowfall 0.0  
Since 1 July snowfall 0.0  
Since 1 September snowfall 0.0  
Snow Depth -    
Sea Level Pressure  
Sea Level Pressure 29.93 in    
Wind  
Wind Speed 8 mph (NNW)    
Max Wind Speed 15 mph    
Max Gust Speed 22 mph    
Visibility 10 miles    
Events      
T = Trace of Precipitation, MM = Missing Value Source: NWS Daily Summary

Daily Weather History Graph

Daily Weather History Graph

Search for Another Location

Airport:

Trip Planner

Search our weather history database for the weather conditions in past years. The results will help you decide how hot, cold, wet, or windy it might be!

Date:

Astronomy

Sep. 08, 2012 Rise Set
Actual Time 6:31 AM CDT 7:12 PM CDT
Civil Twilight 6:05 AM CDT 7:38 PM CDT
Nautical Twilight 5:34 AM CDT 8:09 PM CDT
Astronomical Twilight 5:02 AM CDT 8:41 PM CDT
Moon No Moon Rise 2:03 PM CDT (9/8)
Length of Visible Light 13h 33m
Length of Day
12h 40m
Waning Gibbous, 48% of the Moon is Illuminated
Sep 8
Waning Gibbous
Sep 15
New
Sep 22
First Quarter
Sep 29
Full
Oct 8
Last Quarter

Hourly Weather History & Observations

Time (CDT) Temp. Dew Point Humidity Pressure Visibility Wind Dir Wind Speed Gust Speed Precip Events Conditions
12:15 AM 71.1 °F 71.1 °F 100% 29.79 in 10.0 mi West 4.6 mph - N/A   Overcast
12:35 AM 71.1 °F 71.1 °F 100% 29.80 in 10.0 mi West 5.8 mph - N/A   Overcast
1:15 AM 70.9 °F 70.7 °F 99% 29.80 in 5.0 mi NW 9.2 mph - N/A   Overcast
1:35 AM 70.7 °F 70.0 °F 98% 29.81 in 10.0 mi NW 9.2 mph - 0.02 in   Overcast
1:55 AM 69.8 °F 68.9 °F 97% 29.81 in 10.0 mi NW 8.1 mph - 0.02 in   Overcast
2:15 AM 69.8 °F 68.9 °F 97% 29.80 in 10.0 mi NW 9.2 mph - N/A   Overcast
2:35 AM 69.1 °F 68.7 °F 99% 29.81 in 7.0 mi NNW 10.4 mph - N/A   Overcast
2:55 AM 68.9 °F 68.2 °F 98% 29.81 in 10.0 mi NW 8.1 mph - N/A   Overcast
3:15 AM 68.7 °F 68.0 °F 98% 29.80 in 10.0 mi NNW 8.1 mph - N/A   Overcast
3:35 AM 68.4 °F 67.5 °F 97% 29.81 in 10.0 mi NW 9.2 mph - N/A   Overcast
3:55 AM 68.4 °F 67.1 °F 96% 29.81 in 10.0 mi NNW 4.6 mph - N/A   Overcast
4:15 AM 67.8 °F 66.4 °F 95% 29.82 in 10.0 mi NNW 15.0 mph 21.9 mph N/A   Overcast
4:35 AM 66.4 °F 64.8 °F 95% 29.83 in 10.0 mi NNW 12.7 mph 19.6 mph N/A   Overcast
4:55 AM 66.2 °F 64.6 °F 94% 29.83 in 10.0 mi NNW 11.5 mph 17.3 mph N/A   Overcast
5:15 AM 65.7 °F 63.3 °F 92% 29.85 in 10.0 mi NNW 11.5 mph 20.7 mph N/A   Overcast
5:35 AM 64.8 °F 62.2 °F 92% 29.86 in 10.0 mi NNW 15.0 mph - N/A   Scattered Clouds
5:55 AM 63.5 °F 59.9 °F 88% 29.87 in 10.0 mi NNW 12.7 mph 19.6 mph N/A   Scattered Clouds
6:15 AM 62.8 °F 59.2 °F 88% 29.88 in 10.0 mi NNW 10.4 mph 18.4 mph N/A   Clear
6:35 AM 62.1 °F 59.2 °F 90% 29.90 in 10.0 mi NNW 9.2 mph - N/A   Scattered Clouds
6:55 AM 61.9 °F 59.2 °F 91% 29.91 in 10.0 mi NNW 6.9 mph - N/A   Scattered Clouds
7:15 AM 61.9 °F 59.0 °F 90% 29.91 in 10.0 mi NNW 8.1 mph - N/A   Clear
7:35 AM 62.1 °F 58.6 °F 89% 29.92 in 10.0 mi NNW 8.1 mph - N/A   Clear
7:55 AM 62.8 °F 59.0 °F 87% 29.93 in 10.0 mi NNW 9.2 mph - N/A   Clear
8:15 AM 63.7 °F 58.6 °F 84% 29.94 in 10.0 mi NNW 13.8 mph 17.3 mph N/A   Clear
8:35 AM 64.4 °F 57.0 °F 77% 29.95 in 10.0 mi NNW 10.4 mph 16.1 mph N/A   Scattered Clouds
8:55 AM 65.1 °F 56.7 °F 74% 29.96 in 10.0 mi NNW 10.4 mph 17.3 mph N/A   Scattered Clouds
9:15 AM 66.2 °F 55.4 °F 68% 29.96 in 10.0 mi North 12.7 mph 19.6 mph N/A   Clear
9:35 AM 67.5 °F 55.4 °F 65% 29.97 in 10.0 mi North 9.2 mph - 0.01 in   Clear
9:55 AM 68.2 °F 54.7 °F 62% 29.97 in 10.0 mi North 10.4 mph 17.3 mph 0.01 in   Clear
10:15 AM 69.6 °F 54.5 °F 59% 29.98 in 10.0 mi North 10.4 mph 18.4 mph N/A   Clear
10:35 AM 70.5 °F 53.6 °F 55% 29.98 in 10.0 mi NNW 12.7 mph - N/A   Clear
10:55 AM 71.2 °F 53.4 °F 53% 29.98 in 10.0 mi North 8.1 mph 18.4 mph N/A   Clear
11:15 AM 72.0 °F 52.3 °F 50% 29.99 in 10.0 mi North 12.7 mph 17.3 mph N/A   Scattered Clouds
11:35 AM 72.7 °F 51.6 °F 47% 29.98 in 10.0 mi North 10.4 mph 16.1 mph N/A   Scattered Clouds
11:55 AM 71.6 °F 50.9 °F 48% 29.98 in 10.0 mi NNW 12.7 mph 18.4 mph N/A   Mostly Cloudy
12:15 PM 73.2 °F 50.9 °F 45% 29.98 in 10.0 mi North 8.1 mph 16.1 mph N/A   Mostly Cloudy
12:35 PM 73.4 °F 51.3 °F 46% 29.99 in 10.0 mi North 8.1 mph 17.3 mph N/A   Scattered Clouds
12:55 PM 73.4 °F 50.4 °F 44% 29.99 in 10.0 mi North 11.5 mph 16.1 mph N/A   Scattered Clouds
1:15 PM 72.7 °F 49.5 °F 44% 29.98 in 10.0 mi North 10.4 mph - N/A   Mostly Cloudy
1:35 PM 72.3 °F 50.4 °F 46% 29.98 in 10.0 mi North 10.4 mph - N/A   Mostly Cloudy
1:55 PM 73.6 °F 51.3 °F 45% 29.98 in 10.0 mi NNW 9.2 mph 17.3 mph N/A   Mostly Cloudy
2:15 PM 74.5 °F 50.5 °F 43% 29.97 in 10.0 mi NW 9.2 mph - N/A   Mostly Cloudy
2:35 PM 74.5 °F 50.0 °F 42% 29.96 in 10.0 mi NNW 11.5 mph - N/A   Mostly Cloudy
2:55 PM 73.4 °F 48.9 °F 42% 29.95 in 10.0 mi NNW 4.6 mph - N/A   Scattered Clouds
3:15 PM 73.0 °F 50.2 °F 44% 29.96 in 10.0 mi North 9.2 mph - N/A   Scattered Clouds
3:35 PM 74.1 °F 49.6 °F 42% 29.95 in 10.0 mi NW 6.9 mph - N/A   Clear
3:55 PM 74.5 °F 49.3 °F 41% 29.95 in 10.0 mi North 5.8 mph - N/A   Clear
4:15 PM 74.7 °F 48.9 °F 40% 29.94 in 10.0 mi NNW 5.8 mph - N/A   Clear
4:35 PM 74.3 °F 48.4 °F 40% 29.95 in 10.0 mi NW 10.4 mph - N/A   Clear
4:55 PM 74.7 °F 49.6 °F 41% 29.95 in 10.0 mi NW 9.2 mph - N/A   Clear
5:15 PM 73.8 °F 49.3 °F 42% 29.95 in 10.0 mi NNW 10.4 mph - N/A   Clear
5:35 PM 73.4 °F 50.4 °F 44% 29.95 in 10.0 mi NNW 8.1 mph - N/A   Clear
5:55 PM 72.9 °F 50.0 °F 44% 29.96 in 10.0 mi NNW 10.4 mph - N/A   Clear
6:15 PM 72.0 °F 50.4 °F 46% 29.96 in 10.0 mi NNW 8.1 mph - N/A   Clear
6:35 PM 70.7 °F 50.9 °F 49% 29.96 in 10.0 mi NNW 5.8 mph - N/A   Clear
6:55 PM 69.1 °F 51.6 °F 54% 29.96 in 10.0 mi NW 3.5 mph - N/A   Clear
7:15 PM 67.1 °F 52.5 °F 59% 29.96 in 10.0 mi Calm Calm - N/A   Clear
7:35 PM 63.3 °F 55.4 °F 75% 29.96 in 10.0 mi Calm Calm - N/A   Clear
7:55 PM 61.5 °F 55.6 °F 81% 29.96 in 10.0 mi Calm Calm - N/A   Clear
8:15 PM 60.6 °F 55.9 °F 85% 29.97 in 10.0 mi Calm Calm - N/A   Clear
8:35 PM 60.3 °F 55.4 °F 84% 29.98 in 10.0 mi Calm Calm - N/A   Clear
9:15 PM 58.8 °F 55.6 °F 89% 29.99 in 10.0 mi Calm Calm - N/A   Clear
9:35 PM 58.1 °F 55.2 °F 90% 29.99 in 10.0 mi Calm Calm - N/A   Clear
9:55 PM 58.1 °F 56.3 °F 94% 30.00 in 10.0 mi Calm Calm - N/A   Clear
10:35 PM 57.2 °F 56.3 °F 97% 30.00 in 10.0 mi Calm Calm - N/A   Clear
11:35 PM 55.4 °F 54.7 °F 97% 29.99 in 10.0 mi Calm Calm - N/A   Clear
11:55 PM 55.6 °F 55.2 °F 99% 29.99 in 10.0 mi Calm Calm - N/A   Clear